Orbital Elements at Epoch 2459200.5 (2020-Dec-17.0) TDB
Reference: JPL 17 (heliocentric ecliptic J2000)
Element | Value | Uncertainty (1-sigma) | Units |
e | .02915377108527738 | 4.904e-08 | |
a | 3.187951462312852 | 4.2002e-08 | au |
q | 3.095010655149607 | 1.612e-07 | au |
i | 23.36285325382478 | 5.3616e-06 | deg |
node | 141.9204692291349 | 1.4594e-05 | deg |
peri | 135.3748095351698 | 0.00010504 | deg |
M | 33.29419137232145 | 0.00010301 | deg |
tp | 2459008.220958588750 (2020-Jun-07.72095859) | 0.00059458 | TDB |
period | 2079.054995929264 5.69 | 4.1088e-05 1.125e-07 | d yr |
n | .1731555926634316 | 3.4221e-09 | deg/d |
Q | 3.280892269476096 | 4.3227e-08 | au |
|
| | Orbit Determination Parameters
Additional Information
|